"startDT [UTC]","vpos","CH4 [ppm]","stdev(CH4) [ppm]","CO2 [ppm]","stdev(CO2) [ppm]","H2O [ppm]","stdev(H2O)","p_LGR [torr]","T_LGR [C]","mt1_LGR [us]","mt2_LGR [us]","T_ECpre [C]","T_EC1 [C]","T_EC2 [C]","p_inlet [hPa]","p_in [hPa]","p_out [hPa]","T_inlet [C]","RH_inlet [%]","dwpt_inlet [C]","T_vent [C]","RH_vent [%]","dwpt_vent [C]","flow_vent [l min-1]","flow_inlet [l min-1]","dwpt_sample [C]","T_room [C]"
2012-09-29 00:00:00,0.0,1.9405,0.0011,399.89,0.34,345.9,29.2,138.09,29.86,24.65,36.40,0.04,-272.75,-272.75,-42,568,-919,23.4,18.9,-1.6,23.9,18.9,-1.2,5.73,2.30,-21.6,29.1
2012-09-29 00:01:00,0.0,1.9403,0.0010,399.88,0.33,346.3,37.6,138.09,29.85,24.65,36.41,0.04,-272.74,-272.75,-42,568,-919,23.4,18.9,-1.6,23.9,18.9,-1.2,5.73,2.38,-21.7,29.1
2012-09-29 00:02:00,0.0,1.9402,0.0009,400.00,0.37,353.3,38.4,138.09,29.85,24.65,36.39,0.04,-272.75,-272.75,-42,568,-919,23.4,19.0,-1.6,23.9,18.9,-1.2,5.73,2.38,-21.7,29.2
2012-09-29 00:03:00,0.0,1.9414,0.0012,400.02,0.37,348.2,34.3,138.09,29.84,24.65,36.40,0.04,-272.75,-272.74,-42,568,-919,23.4,18.9,-1.6,23.9,19.0,-1.2,5.73,2.31,-21.7,29.1
2012-09-29 00:04:00,0.0,1.9408,0.0009,399.80,0.29,355.6,39.3,138.09,29.83,24.65,36.41,0.04,-272.75,-272.74,-42,568,-919,23.3,19.0,-1.6,23.8,19.0,-1.2,5.73,2.29,-21.7,29.1
2012-09-29 00:05:00,0.0,1.9406,0.0011,399.92,0.34,348.8,39.0,138.09,29.82,24.65,36.40,0.04,-272.74,-272.74,-42,568,-919,23.3,19.0,-1.6,23.8,19.0,-1.2,5.73,2.35,-21.7,29.1
2012-09-29 00:06:00,0.0,1.9406,0.0013,399.84,0.31,342.7,35.1,138.09,29.82,24.65,36.40,0.04,-272.75,-272.75,-42,568,-919,23.3,19.0,-1.6,23.8,19.0,-1.2,5.73,2.39,-21.7,29.1
2012-09-29 00:07:00,0.0,1.9420,0.0010,399.86,0.38,341.3,35.2,138.09,29.81,24.65,36.41,0.04,-272.75,-272.75,-42,568,-919,23.3,19.0,-1.6,23.8,19.0,-1.2,5.73,2.33,-21.7,29.0
2012-09-29 00:08:00,0.0,1.9414,0.0014,399.78,0.35,354.1,35.6,138.09,29.80,24.65,36.40,0.04,-272.75,-272.74,-42,568,-919,23.3,19.1,-1.6,23.8,19.1,-1.2,5.73,2.28,-21.7,29.0
2012-09-29 00:09:00,0.0,1.9407,0.0011,399.71,0.33,342.1,35.0,138.09,29.79,24.65,36.40,0.04,-272.75,-272.75,-42,568,-919,23.3,19.0,-1.6,23.8,19.1,-1.1,5.73,2.35,-21.7,29.0
2012-09-29 00:10:00,0.0,1.9403,0.0013,399.71,0.34,350.4,40.8,138.09,29.79,24.65,36.40,0.04,-272.75,-272.75,-42,568,-919,23.3,19.0,-1.7,23.8,19.1,-1.2,5.73,2.40,-21.6,29.0
2012-09-29 00:11:00,0.0,1.9403,0.0011,399.65,0.36,356.8,35.4,138.10,29.78,24.65,36.40,0.04,-272.74,-272.74,-42,568,-918,23.3,19.0,-1.6,23.8,19.1,-1.2,5.73,2.33,-21.7,29.0
2012-09-29 00:12:00,0.0,1.9402,0.0011,399.69,0.31,348.7,38.0,138.10,29.78,24.65,36.40,0.04,-272.75,-272.75,-42,567,-918,23.3,19.1,-1.6,23.8,19.1,-1.2,5.73,2.28,-21.6,29.0
2012-09-29 00:13:00,0.0,1.9378,0.0014,399.64,0.33,354.7,36.5,138.09,29.77,24.65,36.39,0.04,-272.75,-272.75,-42,568,-918,23.3,19.0,-1.6,23.7,19.1,-1.2,5.73,2.35,-21.7,29.0
2012-09-29 00:14:00,0.0,1.9386,0.0010,399.53,0.30,345.2,33.6,138.09,29.76,24.65,36.41,0.04,-272.75,-272.75,-42,568,-918,23.3,19.0,-1.6,23.8,19.1,-1.2,5.73,2.40,-21.6,29.0
2012-09-29 00:15:00,0.0,1.9391,0.0009,399.61,0.29,346.5,41.2,138.09,29.76,24.65,36.39,0.04,-272.74,-272.74,-42,567,-918,23.3,19.0,-1.6,23.7,19.1,-1.2,5.73,2.31,-21.6,29.0
2012-09-29 00:16:00,0.0,1.9394,0.0009,399.56,0.30,343.0,37.4,138.09,29.75,24.65,36.40,0.04,-272.75,-272.75,-42,567,-919,23.3,19.0,-1.6,23.7,19.1,-1.2,5.73,2.29,-21.6,29.0
2012-09-29 00:17:00,0.0,1.9382,0.0012,399.53,0.25,353.9,35.9,138.09,29.74,24.65,36.40,0.04,-272.75,-272.75,-42,567,-918,23.3,19.0,-1.6,23.7,19.1,-1.2,5.73,2.38,-21.7,28.9
2012-09-29 00:18:00,0.0,1.9368,0.0010,399.50,0.30,353.6,34.0,138.09,29.74,24.65,36.39,0.04,-272.74,-272.74,-42,567,-918,23.3,19.0,-1.7,23.7,19.0,-1.2,5.73,2.38,-21.6,28.9
2012-09-29 00:19:00,0.0,1.9375,0.0011,399.43,0.37,354.7,37.7,138.10,29.73,24.65,36.40,0.04,-272.75,-272.75,-42,567,-918,23.3,18.9,-1.7,23.7,19.0,-1.3,5.73,2.29,-21.7,28.9
2012-09-29 00:20:00,0.0,1.9380,0.0012,399.34,0.33,354.9,39.7,138.10,29.73,24.65,36.40,0.04,-272.75,-272.75,-42,567,-918,23.3,18.9,-1.7,23.7,19.0,-1.3,5.73,2.31,-21.6,28.9
2012-09-29 00:21:00,0.0,1.9372,0.0014,399.15,0.31,339.8,37.5,138.09,29.72,24.65,36.41,0.04,-272.74,-272.75,-42,567,-918,23.3,18.9,-1.7,23.7,19.0,-1.2,5.73,2.39,-21.7,28.8
2012-09-29 00:22:00,0.0,1.9400,0.0010,399.26,0.33,356.5,39.9,138.10,29.72,24.65,36.41,0.04,-272.74,-272.75,-42,567,-918,23.2,19.0,-1.7,23.7,19.0,-1.2,5.73,2.36,-21.7,28.8
2012-09-29 00:23:00,0.0,1.9375,0.0013,399.19,0.32,348.8,33.0,138.09,29.71,24.65,36.41,0.04,-272.75,-272.75,-42,567,-918,23.3,19.0,-1.6,23.7,19.1,-1.2,5.73,2.28,-21.6,28.8
2012-09-29 00:24:00,0.0,1.9378,0.0011,399.27,0.34,343.5,36.6,138.09,29.70,24.65,36.41,0.04,-272.75,-272.75,-42,567,-918,23.3,19.0,-1.7,23.7,19.0,-1.3,5.73,2.34,-21.7,28.8
2012-09-29 00:25:00,0.0,1.9400,0.0015,399.31,0.30,351.2,39.3,138.09,29.70,24.65,36.40,0.04,-272.74,-272.75,-42,567,-918,23.3,19.0,-1.6,23.7,19.1,-1.2,5.73,2.40,-21.7,28.8
2012-09-29 00:26:00,0.0,1.9382,0.0014,399.15,0.32,361.8,38.4,138.09,29.69,24.65,36.40,0.04,-272.74,-272.75,-42,567,-918,23.3,19.0,-1.6,23.7,19.1,-1.2,5.73,2.32,-21.6,28.8
2012-09-29 00:27:00,0.0,1.9373,0.0008,399.13,0.32,350.3,35.4,138.10,29.69,24.65,36.40,0.04,-272.75,-272.75,-42,567,-918,23.3,19.0,-1.7,23.7,19.0,-1.2,5.73,2.28,-21.6,28.8
2012-09-29 00:28:00,0.0,1.9385,0.0012,399.07,0.32,349.5,33.0,138.09,29.68,24.65,36.40,0.04,-272.74,-272.75,-42,567,-918,23.3,19.0,-1.6,23.7,19.1,-1.2,5.73,2.37,-21.6,28.8
2012-09-29 00:29:00,0.0,1.9388,0.0014,399.01,0.33,355.1,35.6,138.09,29.68,24.65,36.41,0.04,-272.75,-272.74,-42,567,-918,23.3,19.0,-1.6,23.7,19.2,-1.2,5.73,2.38,-21.6,28.8
2012-09-29 00:30:00,0.0,1.9377,0.0011,398.97,0.28,363.0,36.7,138.09,29.67,24.65,36.40,0.04,-272.75,-272.75,-42,567,-918,23.3,19.0,-1.6,23.7,19.1,-1.2,5.73,2.29,-21.6,28.8
2012-09-29 00:31:00,0.0,1.9396,0.0012,398.99,0.35,355.4,36.1,138.09,29.67,24.65,36.40,0.04,-272.74,-272.75,-42,567,-918,23.4,19.1,-1.5,23.7,19.2,-1.1,5.73,2.32,-21.6,28.8
2012-09-29 00:32:00,0.0,1.9409,0.0012,398.97,0.38,356.9,34.7,138.09,29.67,24.65,36.41,0.04,-272.74,-272.75,-42,567,-918,23.3,19.2,-1.5,23.7,19.3,-1.1,5.73,2.39,-21.6,28.8
2012-09-29 00:33:00,0.0,1.9392,0.0011,398.96,0.32,361.6,33.7,138.09,29.66,24.65,36.40,0.04,-272.75,-272.75,-42,567,-918,23.3,19.2,-1.5,23.8,19.3,-1.0,5.73,2.34,-21.6,28.9
2012-09-29 00:34:00,0.0,1.9395,0.0011,398.96,0.36,351.8,41.1,138.09,29.66,24.65,36.41,0.04,-272.74,-272.75,-42,567,-918,23.3,19.1,-1.5,23.8,19.3,-1.1,5.73,2.28,-21.6,28.8
2012-09-29 00:35:00,0.0,1.9377,0.0010,398.82,0.35,353.7,32.9,138.09,29.65,24.65,36.41,0.04,-272.74,-272.75,-42,567,-918,23.4,19.2,-1.5,23.8,19.3,-1.0,5.73,2.36,-21.6,28.9
2012-09-29 00:36:00,0.0,1.9387,0.0012,398.78,0.35,353.8,34.0,138.09,29.65,24.65,36.40,0.04,-272.74,-272.75,-42,567,-918,23.4,19.2,-1.4,23.7,19.3,-1.0,5.73,2.38,-21.6,28.8
2012-09-29 00:37:00,0.0,1.9391,0.0010,398.87,0.33,356.0,43.2,138.09,29.64,24.65,36.40,0.04,-272.75,-272.75,-42,567,-918,23.3,19.2,-1.4,23.7,19.4,-1.0,5.73,2.29,-21.6,28.8
2012-09-29 00:38:00,0.0,1.9386,0.0011,398.75,0.34,357.8,32.5,138.09,29.64,24.65,36.41,0.04,-272.74,-272.75,-42,567,-918,23.3,19.3,-1.4,23.7,19.4,-1.0,5.73,2.32,-21.6,28.9
2012-09-29 00:39:00,0.0,1.9369,0.0011,398.72,0.32,363.1,39.8,138.09,29.63,24.65,36.40,0.04,-272.74,-272.75,-42,567,-918,23.3,19.2,-1.5,23.7,19.3,-1.1,5.73,2.40,-21.6,28.9
2012-09-29 00:40:00,0.0,1.9374,0.0013,398.81,0.40,360.2,34.0,138.09,29.63,24.65,36.40,0.04,-272.75,-272.75,-42,567,-918,23.3,19.1,-1.5,23.7,19.3,-1.1,5.73,2.32,-21.6,28.9
2012-09-29 00:41:00,0.0,1.9378,0.0012,398.76,0.34,358.0,38.0,138.09,29.63,24.65,36.41,0.04,-272.75,-272.75,-42,567,-918,23.3,19.2,-1.4,23.8,19.4,-1.0,5.73,2.29,-21.6,28.9
2012-09-29 00:42:00,0.0,1.9390,0.0014,398.71,0.31,361.0,35.4,138.09,29.62,24.65,36.41,0.04,-272.75,-272.75,-42,567,-918,23.4,19.4,-1.3,23.7,19.5,-0.9,5.73,2.39,-21.6,28.9
2012-09-29 00:43:00,0.0,1.9382,0.0009,398.63,0.28,364.1,32.2,138.09,29.62,24.65,36.40,0.04,-272.75,-272.75,-42,567,-918,23.4,19.3,-1.3,23.7,19.5,-0.9,5.73,2.36,-21.6,28.9
2012-09-29 00:44:00,0.0,1.9382,0.0013,398.54,0.29,355.9,43.1,138.09,29.61,24.65,36.42,0.04,-272.74,-272.74,-42,567,-918,23.3,19.3,-1.4,23.8,19.5,-0.9,5.73,2.27,-21.6,28.9
2012-09-29 00:45:00,0.0,1.9370,0.0012,398.66,0.30,357.0,42.6,138.09,29.61,24.65,36.40,0.04,-272.74,-272.74,-42,567,-918,23.4,19.3,-1.4,23.7,19.4,-1.0,5.73,2.35,-21.6,28.9
2012-09-29 00:46:00,0.0,1.9382,0.0011,398.63,0.35,360.1,35.3,138.09,29.60,24.65,36.41,0.04,-272.74,-272.75,-42,567,-918,23.3,19.2,-1.5,23.7,19.4,-1.0,5.73,2.39,-21.6,28.9
2012-09-29 00:47:00,0.0,1.9387,0.0010,398.64,0.34,362.1,40.0,138.09,29.60,24.65,36.41,0.04,-272.74,-272.75,-42,567,-918,23.4,19.2,-1.4,23.7,19.4,-1.0,5.73,2.29,-21.6,28.9
2012-09-29 00:48:00,0.0,1.9385,0.0011,398.68,0.35,367.4,40.3,138.09,29.60,24.65,36.40,0.04,-272.74,-272.74,-42,567,-918,23.4,19.2,-1.4,23.7,19.4,-1.0,5.73,2.32,-21.5,28.9
2012-09-29 00:49:00,0.0,1.9376,0.0016,398.63,0.34,366.6,40.8,138.09,29.60,24.65,36.41,0.04,-272.75,-272.75,-42,567,-918,23.4,19.2,-1.4,23.7,19.4,-1.0,5.73,2.40,-21.5,28.9
2012-09-29 00:50:00,0.0,1.9354,0.0011,398.61,0.29,364.3,39.6,138.09,29.59,24.65,36.41,0.04,-272.75,-272.75,-42,567,-918,23.4,19.1,-1.5,23.8,19.2,-1.1,5.73,2.31,-21.5,28.9
2012-09-29 00:51:00,0.0,1.9365,0.0011,398.61,0.27,369.8,38.7,138.09,29.59,24.65,36.40,0.04,-272.75,-272.75,-42,567,-918,23.4,19.0,-1.5,23.8,19.2,-1.1,5.73,2.29,-21.5,28.9
2012-09-29 00:52:00,0.0,1.9374,0.0012,398.63,0.35,376.1,41.9,138.09,29.59,24.65,36.40,0.04,-272.74,-272.75,-42,567,-918,23.4,19.1,-1.5,23.8,19.3,-1.1,5.73,2.40,-21.5,28.9
2012-09-29 00:53:00,0.0,1.9372,0.0009,398.59,0.30,366.1,36.1,138.09,29.58,24.65,36.41,0.04,-272.75,-272.75,-42,567,-918,23.4,19.0,-1.5,23.7,19.2,-1.1,5.73,2.34,-21.5,29.0
2012-09-29 00:54:00,0.0,1.9371,0.0012,398.60,0.35,374.0,33.4,138.09,29.58,24.65,36.40,0.04,-272.75,-272.75,-42,567,-918,23.4,19.1,-1.5,23.8,19.3,-1.0,5.73,2.28,-21.5,29.0
2012-09-29 00:55:00,0.0,1.9365,0.0010,398.54,0.32,379.0,37.1,138.09,29.58,24.65,36.41,0.04,-272.75,-272.74,-42,567,-918,23.4,19.0,-1.5,23.8,19.2,-1.1,5.73,2.38,-21.5,29.0
2012-09-29 00:56:00,0.0,1.9385,0.0010,398.60,0.32,373.5,38.9,138.09,29.58,24.65,36.41,0.04,-272.75,-272.75,-42,567,-918,23.4,19.1,-1.4,23.8,19.3,-1.0,5.73,2.36,-21.5,29.0
2012-09-29 00:57:00,0.0,1.9379,0.0013,398.56,0.36,370.7,37.5,138.09,29.57,24.65,36.40,0.04,-272.75,-272.75,-42,567,-918,23.4,19.2,-1.4,23.8,19.4,-0.9,5.73,2.27,-21.5,29.0
2012-09-29 00:58:00,0.0,1.9374,0.0013,398.57,0.32,367.9,33.6,138.09,29.57,24.65,36.41,0.04,-272.75,-272.74,-42,567,-918,23.4,19.1,-1.4,23.8,19.3,-1.0,5.73,2.36,-21.5,29.0
2012-09-29 00:59:00,0.0,1.9378,0.0013,398.55,0.31,372.5,37.1,138.09,29.57,24.65,36.41,0.04,-272.74,-272.74,-42,567,-918,23.5,19.1,-1.5,23.8,19.3,-1.0,5.73,2.38,-21.5,29.0
2012-09-29 01:00:00,0.0,1.9394,0.0011,398.58,0.31,374.4,39.1,138.09,29.57,24.65,36.41,0.04,-272.75,-272.75,-42,567,-918,23.5,19.2,-1.4,23.8,19.3,-0.9,5.73,2.28,-21.5,29.0
2012-09-29 01:01:00,0.0,1.9363,0.0013,398.52,0.29,374.3,34.0,138.09,29.57,24.65,36.41,0.04,-272.74,-272.75,-42,567,-918,23.5,19.1,-1.4,23.8,19.3,-1.0,5.73,2.35,-21.5,29.0
2012-09-29 01:02:00,0.0,1.9363,0.0010,398.49,0.30,382.7,38.5,138.09,29.57,24.65,36.41,0.04,-272.74,-272.75,-42,567,-918,23.5,19.0,-1.5,23.8,19.2,-1.1,5.73,2.39,-21.4,29.0
2012-09-29 01:03:00,0.0,1.9373,0.0009,398.63,0.35,381.2,38.2,138.09,29.57,24.65,36.40,0.04,-272.75,-272.75,-42,567,-918,23.5,19.0,-1.5,23.8,19.2,-1.0,5.73,2.28,-21.4,29.0
2012-09-29 01:04:00,0.0,1.9372,0.0011,398.52,0.31,384.3,41.3,138.09,29.57,24.65,36.41,0.04,-272.75,-272.75,-42,567,-918,23.5,19.1,-1.4,23.8,19.3,-1.0,5.73,2.33,-21.4,29.0
2012-09-29 01:05:00,0.0,1.9368,0.0011,398.42,0.31,381.3,38.9,138.09,29.57,24.65,36.41,0.04,-272.75,-272.75,-42,567,-918,23.5,19.1,-1.4,23.9,19.3,-1.0,5.73,2.40,-21.4,29.1
2012-09-29 01:06:00,0.0,1.9365,0.0011,398.48,0.38,375.5,37.1,138.09,29.57,24.65,36.41,0.04,-272.75,-272.75,-42,567,-918,23.5,19.1,-1.4,23.8,19.3,-1.0,5.73,2.29,-21.4,29.1
2012-09-29 01:07:00,0.0,1.9366,0.0009,398.45,0.29,381.9,36.3,138.09,29.57,24.65,36.41,0.04,-272.75,-272.75,-42,567,-918,23.5,19.1,-1.3,23.8,19.3,-1.0,5.73,2.32,-21.4,29.1
2012-09-29 01:08:00,0.0,1.9359,0.0010,398.27,0.34,373.6,33.5,138.09,29.57,24.65,36.41,0.04,-272.74,-272.75,-42,567,-918,23.6,19.0,-1.4,23.9,19.2,-1.0,5.73,2.40,-21.4,29.0
2012-09-29 01:09:00,0.0,1.9344,0.0012,398.34,0.33,377.0,43.1,138.09,29.57,24.65,36.41,0.04,-272.74,-272.75,-42,567,-918,23.5,19.0,-1.5,23.9,19.2,-1.0,5.73,2.29,-21.4,29.0
2012-09-29 01:10:00,0.0,1.9343,0.0010,398.31,0.32,373.2,39.0,138.09,29.56,24.65,36.41,0.04,-272.75,-272.75,-42,567,-918,23.5,18.9,-1.5,23.9,19.1,-1.1,5.73,2.32,-21.4,29.0
2012-09-29 01:11:00,0.0,1.9348,0.0009,398.38,0.37,375.4,35.8,138.09,29.56,24.65,36.40,0.04,-272.74,-272.75,-42,567,-918,23.5,18.9,-1.5,23.9,19.1,-1.1,5.73,2.40,-21.4,29.1
2012-09-29 01:12:00,0.0,1.9346,0.0011,398.36,0.32,379.3,39.6,138.09,29.56,24.65,36.41,0.04,-272.75,-272.75,-42,567,-918,23.6,18.9,-1.5,23.9,19.1,-1.1,5.73,2.29,-21.4,29.0
2012-09-29 01:13:00,0.0,1.9344,0.0009,398.37,0.35,379.8,33.6,138.09,29.56,24.65,36.41,0.04,-272.75,-272.75,-42,567,-918,23.6,18.9,-1.5,23.9,19.1,-1.1,5.73,2.32,-21.4,29.0
2012-09-29 01:14:00,0.0,1.9346,0.0008,398.48,0.39,377.7,36.2,138.09,29.56,24.65,36.40,0.04,-272.74,-272.74,-42,567,-918,23.6,18.9,-1.5,23.9,19.1,-1.1,5.73,2.40,-21.4,29.0
2012-09-29 01:15:00,0.0,1.9340,0.0012,398.37,0.36,379.7,38.1,138.09,29.56,24.65,36.41,0.04,-272.74,-272.75,-42,567,-918,23.6,18.9,-1.5,23.9,19.1,-1.1,5.73,2.29,-21.4,29.0
2012-09-29 01:16:00,0.0,1.9343,0.0013,398.41,0.31,376.6,36.4,138.09,29.56,24.65,36.40,0.04,-272.75,-272.75,-42,567,-918,23.6,18.8,-1.5,23.9,19.0,-1.1,5.73,2.32,-21.4,29.0
2012-09-29 01:17:00,0.0,1.9344,0.0010,398.43,0.29,377.7,35.2,138.09,29.56,24.65,36.40,0.04,-272.75,-272.75,-42,567,-918,23.6,18.9,-1.5,23.9,19.1,-1.1,5.73,2.40,-21.4,29.1
2012-09-29 01:18:00,0.0,1.9339,0.0011,398.48,0.32,392.2,35.0,138.09,29.55,24.65,36.40,0.04,-272.75,-272.75,-42,567,-918,23.6,18.8,-1.5,23.9,19.1,-1.1,5.73,2.29,-21.4,29.1
2012-09-29 01:19:00,0.0,1.9341,0.0009,398.46,0.36,368.2,37.7,138.09,29.55,24.65,36.40,0.04,-272.74,-272.75,-42,567,-918,23.6,18.9,-1.5,23.9,19.1,-1.1,5.73,2.31,-21.4,29.1
2012-09-29 01:20:00,0.0,1.9338,0.0011,398.35,0.29,374.5,35.8,138.09,29.55,24.65,36.41,0.04,-272.75,-272.75,-42,567,-918,23.6,18.8,-1.5,23.9,19.1,-1.1,5.73,2.40,-21.4,29.1
2012-09-29 01:21:00,0.0,1.9338,0.0010,398.40,0.32,375.6,39.4,138.09,29.55,24.65,36.41,0.04,-272.74,-272.75,-42,567,-918,23.6,18.8,-1.5,23.9,19.1,-1.1,5.73,2.29,-21.4,29.1
2012-09-29 01:22:00,0.0,1.9342,0.0011,398.41,0.32,372.8,36.0,138.09,29.55,24.65,36.40,0.04,-272.74,-272.74,-42,567,-918,23.6,18.9,-1.5,23.9,19.1,-1.1,5.73,2.32,-21.4,29.1
2012-09-29 01:23:00,0.0,1.9340,0.0009,398.30,0.29,377.3,32.1,138.09,29.55,24.65,36.41,0.04,-272.75,-272.75,-42,567,-918,23.6,18.9,-1.5,23.9,19.1,-1.1,5.73,2.40,-21.4,29.2
2012-09-29 01:24:00,0.0,1.9345,0.0012,398.36,0.32,380.3,38.8,138.09,29.55,24.65,36.41,0.04,-272.75,-272.75,-42,567,-918,23.6,18.9,-1.5,23.9,19.1,-1.1,5.73,2.29,-21.4,29.1
2012-09-29 01:25:00,0.0,1.9348,0.0008,398.40,0.31,388.1,38.4,138.09,29.55,24.65,36.41,0.04,-272.75,-272.74,-42,567,-918,23.6,19.0,-1.4,23.9,19.2,-1.0,5.73,2.32,-21.4,29.1
2012-09-29 01:26:00,0.0,1.9343,0.0010,398.41,0.33,384.2,34.1,138.09,29.55,24.65,36.40,0.04,-272.74,-272.75,-42,567,-918,23.6,19.0,-1.4,23.9,19.2,-1.0,5.73,2.40,-21.4,29.1
2012-09-29 01:27:00,0.0,1.9337,0.0009,398.30,0.31,372.2,39.8,138.09,29.55,24.65,36.41,0.04,-272.75,-272.75,-42,567,-918,23.6,18.9,-1.5,23.9,19.1,-1.1,5.73,2.29,-21.4,29.1
2012-09-29 01:28:00,0.0,1.9342,0.0010,398.35,0.27,372.7,36.8,138.09,29.55,24.65,36.41,0.04,-272.74,-272.74,-42,567,-918,23.6,18.8,-1.5,24.0,19.0,-1.1,5.73,2.31,-21.4,29.1
2012-09-29 01:29:00,0.0,1.9339,0.0009,398.30,0.31,379.5,46.0,138.09,29.54,24.65,36.41,0.04,-272.74,-272.75,-42,567,-918,23.6,18.9,-1.5,23.9,19.1,-1.1,5.73,2.40,-21.4,29.1
2012-09-29 01:30:00,0.0,1.9345,0.0009,398.37,0.26,367.6,39.8,138.09,29.54,24.65,36.41,0.04,-272.75,-272.75,-42,567,-918,23.5,18.9,-1.5,23.9,19.1,-1.1,5.73,2.31,-21.4,29.2
2012-09-29 01:31:00,0.0,1.9335,0.0011,398.39,0.36,384.1,37.1,138.09,29.54,24.65,36.41,0.04,-272.74,-272.75,-42,567,-918,23.5,18.9,-1.5,23.9,19.1,-1.1,5.73,2.30,-21.4,29.1
2012-09-29 01:32:00,0.0,1.9339,0.0009,398.36,0.29,384.3,36.7,138.09,29.54,24.65,36.40,0.04,-272.74,-272.75,-42,567,-918,23.5,18.9,-1.5,23.9,19.1,-1.1,5.73,2.40,-21.4,29.2
2012-09-29 01:33:00,0.0,1.9336,0.0010,398.40,0.27,381.2,26.5,138.09,29.54,24.65,36.41,0.04,-272.75,-272.75,-42,567,-918,23.5,18.9,-1.5,23.9,19.1,-1.1,5.73,2.31,-21.4,29.1
2012-09-29 01:34:00,0.0,1.9333,0.0011,398.35,0.29,371.9,36.0,138.09,29.54,24.65,36.40,0.04,-272.75,-272.75,-42,568,-918,23.6,18.9,-1.5,23.9,19.1,-1.0,5.73,2.29,-21.4,29.1
2012-09-29 01:35:00,0.0,1.9340,0.0010,398.29,0.36,377.8,47.9,138.09,29.54,24.65,36.41,0.04,-272.74,-272.75,-42,567,-918,23.6,18.9,-1.5,23.9,19.1,-1.1,5.73,2.40,-21.4,29.1
2012-09-29 01:36:00,0.0,1.9337,0.0009,398.38,0.32,395.2,33.7,138.09,29.54,24.65,36.41,0.04,-272.74,-272.75,-42,567,-918,23.6,18.9,-1.5,23.9,19.1,-1.1,5.73,2.31,-21.4,29.1
2012-09-29 01:37:00,0.0,1.9336,0.0010,398.37,0.35,381.0,39.0,138.09,29.54,24.65,36.40,0.04,-272.74,-272.75,-42,567,-918,23.6,18.9,-1.5,23.9,19.1,-1.1,5.73,2.29,-21.4,29.1
2012-09-29 01:38:00,0.0,1.9333,0.0011,398.37,0.28,393.8,38.1,138.09,29.54,24.65,36.41,0.04,-272.74,-272.74,-42,567,-918,23.6,18.8,-1.5,23.9,19.0,-1.1,5.73,2.40,-21.3,29.1
2012-09-29 01:39:00,0.0,1.9339,0.0010,398.39,0.36,386.3,35.7,138.09,29.53,24.65,36.41,0.04,-272.74,-272.75,-42,567,-918,23.6,18.9,-1.5,24.0,19.1,-1.0,5.73,2.31,-21.3,29.1
2012-09-29 01:40:00,0.0,1.9336,0.0009,398.40,0.31,385.5,39.0,138.09,29.53,24.65,36.40,0.04,-272.75,-272.75,-42,567,-918,23.6,18.9,-1.4,23.9,19.1,-1.0,5.73,2.30,-21.3,29.2
2012-09-29 01:41:00,0.0,1.9336,0.0011,398.41,0.30,384.3,36.0,138.09,29.53,24.65,36.40,0.04,-272.74,-272.75,-42,568,-918,23.6,18.9,-1.4,23.9,19.2,-1.0,5.73,2.40,-21.3,29.2
2012-09-29 01:42:00,0.0,1.9338,0.0011,398.36,0.33,392.5,37.6,138.09,29.53,24.65,36.40,0.04,-272.74,-272.74,-42,567,-918,23.6,18.9,-1.4,23.9,19.2,-1.0,5.73,2.30,-21.3,29.2
2012-09-29 01:43:00,0.0,1.9333,0.0011,398.26,0.29,382.5,41.3,138.09,29.53,24.65,36.41,0.04,-272.75,-272.74,-42,567,-918,23.6,18.9,-1.4,23.9,19.1,-1.0,5.73,2.30,-21.3,29.2
2012-09-29 01:44:00,0.0,1.9330,0.0009,398.24,0.31,385.5,37.7,138.09,29.53,24.65,36.41,0.04,-272.74,-272.74,-42,568,-918,23.6,18.9,-1.4,23.9,19.1,-1.0,5.73,2.40,-21.3,29.2
2012-09-29 01:45:00,0.0,1.9340,0.0008,398.39,0.40,391.7,33.8,138.09,29.53,24.65,36.40,0.04,-272.75,-272.74,-42,568,-918,23.6,19.0,-1.3,23.9,19.3,-0.9,5.73,2.30,-21.3,29.2
2012-09-29 01:46:00,0.0,1.9337,0.0010,398.32,0.30,375.9,35.7,138.09,29.53,24.65,36.41,0.04,-272.74,-272.75,-42,567,-918,23.6,19.1,-1.3,23.9,19.4,-0.8,5.73,2.31,-21.3,29.2
2012-09-29 01:47:00,0.0,1.9336,0.0009,398.46,0.34,389.3,35.8,138.09,29.53,24.65,36.40,0.04,-272.74,-272.75,-42,568,-918,23.6,19.0,-1.3,23.9,19.3,-0.9,5.73,2.41,-21.3,29.1
2012-09-29 01:48:00,0.0,1.9339,0.0010,398.43,0.35,387.1,38.2,138.09,29.53,24.65,36.41,0.04,-272.74,-272.75,-42,568,-918,23.6,19.1,-1.3,24.0,19.3,-0.9,5.73,2.28,-21.3,29.2
2012-09-29 01:49:00,0.0,1.9341,0.0011,398.45,0.31,382.0,40.1,138.09,29.53,24.65,36.40,0.04,-272.75,-272.75,-42,568,-918,23.7,19.1,-1.3,24.0,19.3,-0.9,5.73,2.33,-21.3,29.2
2012-09-29 01:50:00,0.0,1.9343,0.0013,398.33,0.38,383.2,34.2,138.09,29.53,24.65,36.41,0.04,-272.75,-272.75,-42,568,-918,23.7,19.2,-1.2,24.0,19.4,-0.8,5.73,2.39,-21.3,29.2
2012-09-29 01:51:00,0.0,1.9341,0.0010,398.41,0.34,383.8,36.0,138.09,29.53,24.65,36.41,0.04,-272.75,-272.75,-42,568,-918,23.7,19.3,-1.1,24.0,19.5,-0.7,5.73,2.27,-21.3,29.2
2012-09-29 01:52:00,0.0,1.9336,0.0010,398.44,0.33,387.0,39.0,138.09,29.54,24.65,36.40,0.04,-272.74,-272.75,-42,568,-918,23.7,19.3,-1.1,24.0,19.6,-0.7,5.73,2.35,-21.3,29.2
2012-09-29 01:53:00,0.0,1.9340,0.0009,398.36,0.35,381.8,34.0,138.09,29.54,24.65,36.41,0.04,-272.74,-272.75,-42,568,-918,23.7,19.4,-1.0,24.0,19.6,-0.6,5.73,2.37,-21.3,29.2
2012-09-29 01:54:00,0.0,1.9352,0.0010,398.36,0.34,377.4,37.7,138.08,29.54,24.65,36.41,0.04,-272.75,-272.74,-42,568,-918,23.7,19.4,-1.0,24.0,19.7,-0.6,5.73,2.27,-21.3,29.1
2012-09-29 01:55:00,0.0,1.9350,0.0009,398.39,0.30,392.6,31.0,138.09,29.54,24.65,36.41,0.04,-272.74,-272.74,-42,568,-918,23.7,19.4,-1.0,24.0,19.7,-0.6,5.73,2.37,-21.3,29.1
2012-09-29 01:56:00,0.0,1.9340,0.0010,398.37,0.30,393.5,36.3,138.09,29.54,24.65,36.41,0.04,-272.74,-272.75,-42,568,-918,23.7,19.2,-1.2,24.0,19.4,-0.7,5.73,2.36,-21.2,29.2
2012-09-29 01:57:00,0.0,1.9338,0.0012,398.43,0.31,383.2,35.4,138.09,29.54,24.65,36.41,0.04,-272.75,-272.75,-42,568,-918,23.7,19.1,-1.2,24.0,19.3,-0.8,5.73,2.27,-21.2,29.2
2012-09-29 01:58:00,0.0,1.9340,0.0014,398.56,0.38,397.0,29.8,138.08,29.54,24.65,36.41,0.04,-272.75,-272.75,-42,568,-918,23.7,19.0,-1.2,24.0,19.3,-0.8,5.73,2.39,-21.2,29.2
2012-09-29 01:59:00,0.0,1.9334,0.0011,398.44,0.30,394.1,39.5,138.09,29.54,24.65,36.41,0.04,-272.74,-272.74,-42,568,-918,23.7,18.9,-1.3,24.1,19.2,-0.9,5.73,2.33,-21.2,29.3
2012-09-29 02:00:00,1.0,1.9037,0.0209,385.14,9.31,377.1,37.6,138.08,29.54,24.65,36.41,0.04,-272.75,-272.75,-42,624,-918,23.7,18.9,-1.3,24.1,19.2,-0.9,5.73,2.32,-21.2,29.2
2012-09-29 02:01:00,1.0,1.8796,0.0010,374.72,0.28,362.5,40.3,138.09,29.55,24.65,36.42,0.04,-272.74,-272.75,-42,622,-918,23.8,18.9,-1.4,24.1,19.1,-0.9,5.73,2.40,-21.3,29.2
2012-09-29 02:02:00,1.0,1.8797,0.0011,374.73,0.33,366.0,36.5,138.08,29.55,24.65,36.42,0.04,-272.75,-272.74,-42,621,-918,23.8,18.9,-1.3,24.1,19.1,-0.9,5.73,2.31,-21.2,29.3
2012-09-29 02:03:00,1.0,1.8797,0.0010,374.80,0.27,362.0,32.6,138.08,29.55,24.65,36.42,0.04,-272.75,-272.75,-42,621,-918,23.8,18.8,-1.4,24.1,19.0,-1.0,5.73,2.29,-21.2,29.2
2012-09-29 02:04:00,1.0,1.8798,0.0010,374.65,0.30,367.4,31.3,138.08,29.55,24.65,36.43,0.04,-272.74,-272.75,-42,621,-918,23.8,18.8,-1.4,24.1,19.0,-1.0,5.73,2.40,-21.3,29.3
2012-09-29 02:05:00,0.0,1.9097,0.0212,387.83,9.29,378.2,34.5,138.08,29.56,24.65,36.41,0.04,-272.74,-272.74,-42,567,-918,23.8,18.6,-1.5,24.1,18.9,-1.1,5.73,2.30,-21.2,29.3
2012-09-29 02:06:00,0.0,1.9346,0.0010,398.58,0.27,388.4,35.1,138.08,29.56,24.65,36.40,0.04,-272.74,-272.75,-42,567,-918,23.8,18.7,-1.4,24.1,19.0,-1.0,5.73,2.33,-21.2,29.2
2012-09-29 02:07:00,0.0,1.9344,0.0010,398.60,0.34,396.4,40.7,138.08,29.56,24.65,36.40,0.04,-272.74,-272.75,-42,567,-918,23.8,18.6,-1.5,24.1,18.8,-1.1,5.73,2.39,-21.2,29.3
2012-09-29 02:08:00,0.0,1.9343,0.0008,398.52,0.36,398.7,34.9,138.08,29.56,24.65,36.41,0.04,-272.75,-272.75,-42,568,-919,23.8,18.4,-1.6,24.2,18.6,-1.2,5.73,2.27,-21.2,29.3
2012-09-29 02:09:00,0.0,1.9346,0.0010,398.57,0.26,401.8,35.7,138.08,29.56,24.65,36.41,0.04,-272.74,-272.75,-42,568,-918,23.9,18.4,-1.6,24.1,18.7,-1.1,5.73,2.36,-21.2,29.3
2012-09-29 02:10:00,0.0,1.9344,0.0011,398.64,0.28,394.9,33.2,138.08,29.56,24.65,36.41,0.04,-272.74,-272.75,-42,568,-919,23.9,18.1,-1.8,24.2,18.4,-1.3,5.73,2.36,-21.2,29.3
2012-09-29 02:11:00,0.0,1.9349,0.0008,398.58,0.33,389.8,37.0,138.08,29.56,24.65,36.41,0.04,-272.75,-272.75,-42,568,-918,23.9,18.1,-1.9,24.2,18.3,-1.4,5.73,2.27,-21.2,29.3
2012-09-29 02:12:00,0.0,1.9348,0.0011,398.62,0.34,399.0,37.9,138.08,29.56,24.65,36.41,0.04,-272.74,-272.75,-42,568,-918,23.9,18.1,-1.8,24.2,18.4,-1.4,5.73,2.39,-21.2,29.3
2012-09-29 02:13:00,0.0,1.9354,0.0012,398.58,0.36,395.6,40.9,138.08,29.56,24.65,36.41,0.04,-272.74,-272.75,-42,568,-918,23.9,18.1,-1.8,24.2,18.4,-1.3,5.73,2.32,-21.2,29.3
2012-09-29 02:14:00,0.0,1.9351,0.0010,398.69,0.34,394.5,41.5,138.08,29.57,24.65,36.41,0.04,-272.75,-272.75,-42,568,-918,23.9,17.9,-1.9,24.2,18.2,-1.5,5.73,2.29,-21.2,29.3
2012-09-29 02:15:00,0.0,1.9346,0.0010,398.58,0.35,390.8,37.3,138.08,29.57,24.65,36.41,0.04,-272.75,-272.74,-42,568,-918,23.9,17.9,-1.9,24.2,18.2,-1.5,5.73,2.40,-21.2,29.4
2012-09-29 02:16:00,0.0,1.9349,0.0009,398.70,0.30,406.0,41.6,138.08,29.58,24.65,36.42,0.04,-272.75,-272.74,-42,568,-918,23.9,17.9,-1.9,24.2,18.2,-1.5,5.73,2.29,-21.2,29.4